Regional Weather Roundup
Issued by NWS

Home | Current Version | Previous Version | Graphics & Text | Print | Product List | Glossary On
Versions: 1 2 3 4 5 6 7 8 9 10 11 12 13 14 15 16 17 18 19 20 21 22 23 24 25 26 27 28 29 30 31 32 33 34 35 36 37 38 39 40 41 42 43 44 45 46 47 48 49 50
000
ASUS43 KIND 072309
RWRIN

WEATHER ROUNDUP FOR INDIANA
NATIONAL WEATHER SERVICE INDIANAPOLIS IN
600 PM EST WED DEC 07 2016

NOTE: "FAIR" INDICATES FEW OR NO CLOUDS BELOW 12,000 FEET WITH NO
SIGNIFICANT WEATHER AND/OR OBSTRUCTIONS TO VISIBILITY.

* - STATION DOES NOT REPORT WEATHER SUCH AS PRECIPITATION OR FOG.

+ - STATION NOT QUALITY CONTROLLED BY THE NATIONAL WEATHER SERVICE.
    USE DATA WITH CAUTION...ESPECIALLY DEWPOINT AND RELATIVE
    HUMIDITY OBSERVATIONS.

INZ001>003-010>013-019-020-080000-
NORTHWEST INDIANA

CITY           SKY/WX    TMP DP  RH WIND       PRES   REMARKS
GARY /AIRPORT/ MOCLDY    30  21  69 W20       30.12S WCI  18
KNOX *+        PTCLDY    30   9  40 W15       30.12S WCI  19
LA PORTE +     PTCLDY    28  22  78 SW12      30.11S WCI  18
MICHIGAN CITY+ PTCLDY    30  21  69 SW9       30.12R WCI  22
MONTICELLO +   PTCLDY    31  21  66 W8        30.14S WCI  23
RENSSELAER +     N/A     32  27  80 W10G18    30.15S WCI  24
VALPARAISO     PTCLDY    29  21  72 SW15      30.12R WCI  18

$$

LMZ046-743>745-080000-
SOUTHERN LAKE MICHIGAN

STATION/POSITION TIME  TEMP    WIND        PRES    WAVE
                       AIR SEA DIR/SP/G            HT
                 (UTC) (F)     (DEG/KT/KT) (MB)    (FT)
BURNS HARBOR     2240   30     230/ 15/ 22 1020.3R
MICHIGAN CITY    2240   30     210/ 29/ 32   N/A

$$

INZ004-005-014>016-021>024-080000-
NORTH CENTRAL INDIANA

CITY           SKY/WX    TMP DP  RH WIND       PRES   REMARKS
ELKHART        PTCLDY    28  21  74 SW13      30.09R WCI  18
GOSHEN         PTCLDY    30  22  72 W10       30.09R WCI  21
LOGANSPORT +   PTCLDY    30  25  80 W15       30.15R WCI  19
PERU/GRISSOM   CLOUDY    31  25  78 W12       30.12R WCI  21
ROCHESTER +    PTCLDY    32  28  86 W9        30.13R WCI  24
SOUTH BEND     MOCLDY    28  21  75 SW13      30.10R WCI  17
WARSAW +       MOCLDY    30  21  69 W13       30.10S WCI  20

$$

INZ006>009-017-018-025>027-080000-
NORTHEAST INDIANA

CITY           SKY/WX    TMP DP  RH WIND       PRES   REMARKS
ANGOLA *+      CLEAR     30  19  64 SW8       30.06R WCI  23
AUBURN +       PTCLDY    32  23  69 SW9G16    30.09S WCI  24
FORT WAYNE     MOCLDY    32  23  69 W10       30.11R WCI  24
HUNTINGTON +   PTCLDY    31  23  72 W10       30.12R WCI  22
KENDALLVILLE + MOCLDY    30  23  75 SW9       30.08R WCI  22

$$

INZ028-029-035-036-043>045-051>053-080000-
WEST CENTRAL INDIANA

CITY           SKY/WX    TMP DP  RH WIND       PRES   REMARKS
CRAWFORDSVL +  CLOUDY    30  23  74 W8        30.16S WCI  23
GREENCASTLE +  CLOUDY    32  25  74 W8        30.18R WCI  25
LAFAYETTE      PTCLDY    30  23  75 W8        30.16R WCI  22
TERRE HAUTE    CLOUDY    34  21  59 W8        30.19S WCI  27

$$

INZ030>032-037>040-046>048-054>057-064-065-080000-
CENTRAL INDIANA

CITY           SKY/WX    TMP DP  RH WIND       PRES   REMARKS
CP ATTERBURY + CLOUDY    34  23  64 W3        30.16S
COLUMBUS       CLOUDY    34  25  69 W5        30.16S WCI  30
FISHERS *+     CLOUDY    32  27  80 W6        30.14  WCI  26
FRANKFORT +    MOCLDY    33  27  77 W10       30.16S WCI  25
GREENWOOD *+   CLOUDY    35  25  65 W6        30.15S WCI  30
INDIANAPOLIS   CLOUDY    34  21  59 W10       30.15R WCI  26
-EAGLE CREEK   CLOUDY    34  22  61 W8        30.14S WCI  27
KOKOMO +       MOCLDY    32  25  75 W10       30.14R WCI  24
MARION +       PTCLDY    32  25  76 W10       30.14R WCI  23
MT COMFORT *+  CLOUDY    34  21  60 W13       30.14S WCI  25
SHELBYVILLE    CLOUDY    36  24  62 W7        30.14R
ZIONSVILLE +   CLOUDY    32  24  72 W8        30.14F WCI  24

$$

INZ033-034-041-042-049-050-058-059-080000-
EAST CENTRAL INDIANA

CITY           SKY/WX    TMP DP  RH WIND       PRES   REMARKS
MUNCIE         CLOUDY    35  23  61 W10       30.12R WCI  27

$$

INZ060-061-067>069-081>083-085>088-080000-
SOUTHWEST INDIANA

CITY           SKY/WX    TMP DP  RH WIND       PRES   REMARKS
EVANSVILLE     CLOUDY    38  24  57 NW7       30.22R
HUNTINGBURG *+ PTCLDY    36  25  64 NW6       30.21R
WASHINGTON +   CLOUDY    35  28  74 W5        30.20S WCI  31

$$

INZ062-063-066-070>080-084-089>092-080000-
SOUTH CENTRAL AND SOUTHEAST INDIANA

CITY           SKY/WX    TMP DP  RH WIND       PRES   REMARKS
BLOOMINGTON    CLOUDY    34  22  61 W7        30.17R WCI  28
MADISON *+     MOCLDY    36  23  60 CALM      30.17S
NORTH VERNON + CLOUDY    36  30  80 W6        30.16S
SEYMOUR +      CLOUDY    37  25  60 CALM      30.17R

$$





USA.gov is the U.S. government's official web portal to all federal, state and local government web resources and services.